Date,TemperatureHighF,TemperatureAvgF,TemperatureLowF,DewpointHighF,DewpointAvgF,DewpointLowF,HumidityHigh,HumidityAvg,HumidityLow,PressureMaxIn,PressureMinIn,WindSpeedMaxMPH,WindSpeedAvgMPH,GustSpeedMaxMPH,PrecipitationSumIn
2013-3-1,38.3,35.7,32.2,21.8,19.1,15.2,54,50,46,29.87,29.72,15,5,15,0.00
2013-3-2,35.8,31.4,27.7,19.4,14.8,10.6,56,50,46,29.87,29.78,15,4,15,0.00
2013-3-3,41.9,29.2,18.5,22.0,12.5,5.7,62,50,45,29.93,29.78,19,4,19,0.00
2013-3-4,48.7,30.2,13.1,27.3,13.2,1.3,66,49,43,30.02,29.90,15,3,15,0.00
2013-3-5,49.3,37.8,26.4,27.8,21.0,10.3,74,51,43,30.02,29.69,14,2,14,0.15
2013-3-6,38.1,34.1,30.4,31.4,26.3,20.5,100,75,53,30.02,29.60,21,6,22,0.42
2013-3-7,41.5,37.4,34.3,24.1,21.1,19.2,56,51,47,30.16,30.02,22,7,22,0.00
2013-3-8,43.2,36.3,30.6,24.3,20.0,16.1,58,51,44,30.28,30.14,25,7,25,0.00
2013-3-9,54.0,35.1,19.0,31.4,19.8,10.6,69,54,42,30.34,30.22,6,1,7,0.00
2013-3-10,62.6,44.5,23.9,37.6,26.3,15.2,72,51,36,30.25,30.14,14,2,14,0.00
2013-3-11,57.7,51.2,42.4,40.3,29.5,20.2,57,43,37,30.16,29.84,16,3,16,0.02
2013-3-12,61.3,51.4,32.5,52.2,37.5,19.0,92,61,42,29.96,29.72,19,5,19,0.68
2013-3-13,48.7,36.7,28.2,27.1,20.1,12.7,68,51,43,30.05,29.90,25,7,28,0.00
2013-3-14,47.8,35.5,25.5,26.4,16.7,8.6,48,46,43,30.14,30.02,22,7,22,0.00
2013-3-15,60.1,44.5,26.1,36.3,23.9,9.1,48,44,41,30.08,29.78,15,4,16,0.00
2013-3-16,61.5,47.9,36.0,46.3,34.4,20.7,75,60,45,29.84,29.60,16,2,16,0.23
2013-3-17,39.6,35.3,31.3,36.0,30.6,28.0,93,83,67,30.19,29.84,10,3,10,0.26
2013-3-18,34.9,32.1,30.4,29.5,27.5,24.4,91,83,70,30.19,29.84,5,0,5,0.40
2013-3-19,57.4,42.9,30.9,39.4,29.0,16.7,94,62,38,29.93,29.72,38,8,38,0.00
2013-3-20,53.1,40.8,29.7,26.7,17.3,7.0,42,38,36,29.99,29.72,27,7,27,0.00
2013-3-21,36.9,30.1,23.5,20.4,10.6,2.8,61,44,38,29.90,29.75,22,8,22,0.00
2013-3-22,49.5,34.6,21.2,24.1,12.6,0.7,43,40,37,29.96,29.84,16,4,16,0.00
2013-3-23,55.9,37.0,19.9,28.6,16.2,5.5,60,43,35,30.02,29.87,13,2,13,0.00
2013-3-24,40.1,32.0,27.7,23.1,16.8,10.7,73,54,39,29.93,29.57,10,1,10,0.17
2013-3-25,40.8,34.3,27.3,26.9,22.5,14.9,78,63,45,29.69,29.49,12,1,12,0.26
2013-3-26,43.3,37.3,31.6,22.7,18.6,16.0,58,47,38,30.02,29.69,16,4,16,0.00
2013-3-27,47.5,38.1,28.8,22.5,17.9,11.9,58,44,37,30.14,30.02,24,6,24,0.00
2013-3-28,47.8,39.4,32.7,22.9,17.7,12.7,48,41,37,30.19,30.11,24,6,24,0.00
2013-3-29,55.0,42.3,28.2,29.3,21.8,13.0,63,45,36,30.22,30.11,16,3,16,0.00
2013-3-30,60.1,43.1,24.8,32.4,22.3,11.4,61,45,35,30.19,30.05,13,2,13,0.00
2013-3-31,57.0,45.0,36.0,41.6,31.1,18.8,69,58,48,30.05,29.72,11,2,11,0.08